Home > Weather > Alpena > Past weeks

Flag for USA Past Weather in Alpena, Michigan, USA — Yesterday and Last 2 Weeks

Now
75 °F

Passing clouds.


Feels Like: 75 °F
Forecast: 69 / 84 °F
Wind: 7 mph from Southwest

Location: Alpena County Regional Airport

Current Time: Aug 24, 2016 at 11:07:08 PM

Latest Report: Aug 24, 2016 at 9:54 PM


Visibility: 10 mi

Pressure: 29.88 "Hg

Humidity: 82%

Dew Point: 69 °F

Location of AlpenaLocation

Past Weather in Alpena — Graph

°F

Alpena Temperature Yesterday

Maximum temperature yesterday: 86 °F (at 3:54 PM)
Minimum temperature yesterday: 60 °F (at 6:54 AM)
Average temperature yesterday: 73 °F

High & Low Weather Summary for the Past Weeks

 TemperatureHumidityPressure
High92 °F (Aug 10, 2:54 PM)97% (Aug 15, 6:54 AM)30.16 "Hg (Aug 15, 6:54 AM)
Low48 °F (Aug 22, 4:54 AM)31% (Aug 22, 2:54 PM)29.46 "Hg (Aug 20, 10:54 PM)
Average72 °F74%29.94 "Hg
* Reported Aug 9 9:54 PM — Aug 24 9:54 PM, Alpena, Weather by CustomWeather, © 2016

Note: Actual official high and low records may vary slightly from our data, if they occured in-between our weather recording intervals... More about our weather records

Advertising

Alpena Weather History for the Previous 24 Hours

Scroll right to see more
 ConditionsComfort  
Time TempWeatherWind HumidityBarometerVisibility
9:54 PM
Wed, Aug 24
75 °FPassing clouds.7 mph82%29.88 "Hg10 mi
8:54 PM76 °FSunny.6 mph77%29.86 "Hg10 mi
7:54 PM79 °FPassing clouds.7 mph69%29.86 "Hg10 mi
6:54 PM81 °FScattered clouds.9 mph65%29.86 "Hg10 mi
5:54 PM81 °FBroken clouds.10 mph65%29.87 "Hg10 mi
5:02 PM80 °FBroken clouds.10 mph67%29.88 "Hg10 mi
4:54 PM80 °FPartly sunny.8 mph69%29.88 "Hg10 mi
3:54 PM77 °FPassing clouds.13 mph74%29.89 "Hg10 mi
2:54 PM75 °FBroken clouds.15 mph76%29.92 "Hg10 mi
1:54 PM74 °FScattered clouds.14 mph82%29.91 "Hg10 mi
12:54 PM77 °FPartly sunny.16 mph64%29.93 "Hg10 mi
11:54 AM72 °FMostly cloudy.14 mph78%29.97 "Hg10 mi
11:04 AM70 °FHeavy rain. Cloudy.10 mph81%30.00 "Hg1 mi
10:54 AM73 °FLight rain. Mostly cloudy.17 mph66%29.99 "Hg9 mi
9:54 AM75 °FBroken clouds.13 mph62%30.01 "Hg10 mi
8:54 AM68 °FSunny.7 mph76%30.04 "Hg10 mi
7:54 AM65 °FSunny.7 mph85%30.07 "Hg10 mi
6:54 AM57 °FClear.3 mph90%30.08 "Hg10 mi
5:54 AM57 °FClear.No wind90%30.09 "Hg10 mi
4:54 AM58 °FClear.6 mph93%30.08 "Hg10 mi
3:54 AM59 °FClear.No wind90%30.09 "Hg10 mi
2:54 AM65 °FClear.6 mph78%30.08 "Hg10 mi
1:54 AM67 °FClear.6 mph76%30.10 "Hg10 mi
12:54 AM67 °FClear.6 mph73%30.10 "Hg10 mi
11:54 PM
Tue, Aug 23
69 °FClear.5 mph68%30.12 "Hg10 mi
Weather by CustomWeather, © 2016

See weather overviewHow to use our weather pages